JFA1629 SBPB-SBMS

Flight info

Callsign JFA1629
Flight time 1h 13m
Altitude 29000
Route MAKMI DCT OSITI DCT UTMAR
Aircraft TBM9/L-SDFGRWY/S

Departure

Time 2026-05-08 20:58
Airport Parnaíba - Prefeito Doutor João Silva Filho International Airport (SBPB)

Arrival

Time 2026-05-08 22:11
Airport Dix-Sept Rosado Airport (SBMS)
Time Latitude Longitude Altitude Speed Heading
2026-05-08 20:39 -2.89463 -41.73025 17 ft 0 kts 45°
2026-05-08 20:53 -2.89462 -41.73024 17 ft 0 kts 45°
2026-05-08 20:53 -2.89450 -41.73020 17 ft 4 kts 332°
2026-05-08 20:53 -2.89427 -41.73066 18 ft 10 kts 326°
2026-05-08 20:54 -2.89417 -41.73071 18 ft 0 kts 332°
2026-05-08 20:54 -2.89415 -41.73072 18 ft 1 kts 346°
2026-05-08 20:54 -2.89383 -41.73079 18 ft 9 kts 343°
2026-05-08 20:55 -2.89365 -41.73149 18 ft 16 kts 251°
2026-05-08 20:55 -2.89405 -41.73285 18 ft 24 kts 254°
2026-05-08 20:55 -2.89459 -41.73459 19 ft 28 kts 253°
2026-05-08 20:55 -2.89517 -41.73663 20 ft 34 kts 253°
2026-05-08 20:56 -2.89588 -41.73907 19 ft 39 kts 252°
2026-05-08 20:56 -2.89669 -41.74086 17 ft 20 kts 308°
2026-05-08 20:56 -2.89619 -41.74018 17 ft 15 kts 72°
2026-05-08 20:56 -2.89613 -41.73995 17 ft 0 kts 71°
2026-05-08 20:57 -2.89600 -41.73949 18 ft 20 kts 73°
2026-05-08 20:57 -2.89511 -41.73649 20 ft 72 kts 73°
2026-05-08 20:57 -2.89352 -41.73047 199 ft 100 kts 78°
2026-05-08 20:57 -2.89248 -41.72330 578 ft 106 kts 82°
2026-05-08 20:58 -2.89158 -41.71604 973 ft 108 kts 82°
2026-05-08 20:58 -2.89061 -41.70820 1298 ft 119 kts 83°
2026-05-08 20:58 -2.88968 -41.69978 1730 ft 124 kts 83°
2026-05-08 20:58 -2.88866 -41.69121 2166 ft 124 kts 83°
2026-05-08 20:59 -2.88746 -41.68279 2613 ft 124 kts 83°
2026-05-08 20:59 -2.88606 -41.67416 3019 ft 127 kts 80°
2026-05-08 20:59 -2.88342 -41.66577 3433 ft 126 kts 75°
2026-05-08 20:59 -2.88057 -41.65743 3814 ft 128 kts 75°
2026-05-08 21:00 -2.87756 -41.64907 4206 ft 130 kts 75°
2026-05-08 21:00 -2.87441 -41.64060 4621 ft 130 kts 75°
2026-05-08 21:00 -2.87118 -41.63213 5028 ft 130 kts 75°
2026-05-08 21:00 -2.86796 -41.62367 5431 ft 130 kts 75°
2026-05-08 21:01 -2.86480 -41.61513 5825 ft 132 kts 76°
2026-05-08 21:01 -2.86504 -41.60652 6215 ft 126 kts 118°
2026-05-08 21:01 -2.86916 -41.59868 6594 ft 128 kts 119°
2026-05-08 21:01 -2.87325 -41.59078 7013 ft 128 kts 119°
2026-05-08 21:02 -2.87744 -41.58285 7421 ft 129 kts 121°
2026-05-08 21:02 -2.88308 -41.57593 7845 ft 130 kts 134°
2026-05-08 21:02 -2.88939 -41.56939 8244 ft 131 kts 133°
2026-05-08 21:02 -2.89570 -41.56287 8645 ft 132 kts 133°
2026-05-08 21:03 -2.90210 -41.55625 9071 ft 132 kts 133°
2026-05-08 21:03 -2.90854 -41.54960 9487 ft 134 kts 133°
2026-05-08 21:03 -2.91507 -41.54291 9893 ft 135 kts 134°
2026-05-08 21:03 -2.92167 -41.53619 10268 ft 136 kts 134°
2026-05-08 21:04 -2.92831 -41.52943 10647 ft 137 kts 134°
2026-05-08 21:04 -2.93501 -41.52261 11023 ft 138 kts 134°
2026-05-08 21:04 -2.94176 -41.51573 11421 ft 139 kts 134°
2026-05-08 21:04 -2.94856 -41.50882 11823 ft 140 kts 134°
2026-05-08 21:05 -2.95542 -41.50184 12224 ft 141 kts 134°
2026-05-08 21:05 -2.96234 -41.49479 12630 ft 142 kts 134°
2026-05-08 21:05 -2.96933 -41.48766 13043 ft 144 kts 134°
2026-05-08 21:05 -2.97635 -41.48047 13453 ft 145 kts 134°
2026-05-08 21:06 -2.98342 -41.47323 13849 ft 146 kts 134°
2026-05-08 21:06 -2.99046 -41.46600 14198 ft 148 kts 134°
2026-05-08 21:06 -2.99768 -41.45860 14557 ft 150 kts 134°
2026-05-08 21:06 -3.00499 -41.45109 14919 ft 151 kts 134°
2026-05-08 21:07 -3.01239 -41.44350 15281 ft 153 kts 134°
2026-05-08 21:07 -3.01987 -41.43583 15647 ft 155 kts 134°
2026-05-08 21:07 -3.02742 -41.42810 16018 ft 156 kts 134°
2026-05-08 21:07 -3.03531 -41.42053 16385 ft 158 kts 142°
2026-05-08 21:08 -3.04403 -41.41372 16743 ft 160 kts 135°
2026-05-08 21:08 -3.05066 -41.40490 17137 ft 159 kts 118°
2026-05-08 21:08 -3.05555 -41.39493 17510 ft 161 kts 115°
2026-05-08 21:08 -3.06023 -41.38482 17866 ft 163 kts 114°
2026-05-08 21:09 -3.06499 -41.37451 18245 ft 165 kts 115°
2026-05-08 21:09 -3.06983 -41.36404 18570 ft 166 kts 114°
2026-05-08 21:09 -3.07471 -41.35347 18899 ft 167 kts 114°
2026-05-08 21:09 -3.07959 -41.34290 19232 ft 168 kts 114°
2026-05-08 21:10 -3.08449 -41.33230 19592 ft 167 kts 113°
2026-05-08 21:10 -3.08937 -41.32172 19925 ft 169 kts 114°
2026-05-08 21:10 -3.09436 -41.31093 20222 ft 172 kts 112°
2026-05-08 21:10 -3.09938 -41.30008 20575 ft 173 kts 114°
2026-05-08 21:11 -3.10448 -41.28905 20891 ft 175 kts 113°
2026-05-08 21:11 -3.10959 -41.27799 21252 ft 175 kts 112°
2026-05-08 21:11 -3.11471 -41.26689 21582 ft 177 kts 112°
2026-05-08 21:11 -3.11989 -41.25567 21921 ft 178 kts 112°
2026-05-08 21:12 -3.12510 -41.24440 22267 ft 179 kts 113°
2026-05-08 21:12 -3.13038 -41.23298 22600 ft 181 kts 112°
2026-05-08 21:12 -3.13569 -41.22149 22954 ft 183 kts 113°
2026-05-08 21:12 -3.14105 -41.20989 23297 ft 184 kts 112°
2026-05-08 21:13 -3.14644 -41.19821 23627 ft 185 kts 112°
2026-05-08 21:13 -3.15187 -41.18645 23910 ft 187 kts 112°
2026-05-08 21:13 -3.15734 -41.17463 24205 ft 187 kts 113°
2026-05-08 21:13 -3.16283 -41.16272 24489 ft 189 kts 113°
2026-05-08 21:14 -3.16838 -41.15073 24775 ft 191 kts 114°
2026-05-08 21:14 -3.17397 -41.13863 25059 ft 192 kts 113°
2026-05-08 21:14 -3.17961 -41.12643 25346 ft 194 kts 113°
2026-05-08 21:14 -3.18528 -41.11414 25641 ft 195 kts 114°
2026-05-08 21:15 -3.19101 -41.10174 25924 ft 197 kts 114°
2026-05-08 21:15 -3.19677 -41.08924 26210 ft 199 kts 115°
2026-05-08 21:15 -3.20259 -41.07667 26508 ft 200 kts 114°
2026-05-08 21:15 -3.20838 -41.06412 26787 ft 202 kts 115°
2026-05-08 21:16 -3.21434 -41.05120 27079 ft 203 kts 115°
2026-05-08 21:16 -3.22022 -41.03847 27363 ft 205 kts 116°
2026-05-08 21:16 -3.22622 -41.02548 27673 ft 206 kts 116°
2026-05-08 21:16 -3.23228 -41.01236 27967 ft 209 kts 116°
2026-05-08 21:17 -3.23840 -40.99912 28275 ft 210 kts 116°
2026-05-08 21:17 -3.24454 -40.98581 28577 ft 212 kts 117°
2026-05-08 21:17 -3.25072 -40.97243 28888 ft 213 kts 117°
2026-05-08 21:17 -3.25718 -40.95853 28918 ft 228 kts 118°
2026-05-08 21:18 -3.26408 -40.94368 28924 ft 242 kts 117°
2026-05-08 21:18 -3.27138 -40.92793 28928 ft 256 kts 117°
2026-05-08 21:18 -3.27903 -40.91142 28921 ft 267 kts 117°
2026-05-08 21:18 -3.28695 -40.89424 28922 ft 276 kts 117°
2026-05-08 21:19 -3.29485 -40.87638 28921 ft 284 kts 115°
2026-05-08 21:19 -3.30292 -40.85804 28918 ft 291 kts 116°
2026-05-08 21:19 -3.31122 -40.83939 28917 ft 296 kts 116°
2026-05-08 21:19 -3.31948 -40.82063 28921 ft 300 kts 115°
2026-05-08 21:20 -3.32793 -40.80134 28920 ft 304 kts 115°
2026-05-08 21:20 -3.34513 -40.76221 28926 ft 310 kts 115°
2026-05-08 21:21 -3.36266 -40.72233 28920 ft 317 kts 115°
2026-05-08 21:21 -3.38055 -40.68161 28928 ft 322 kts 115°
2026-05-08 21:22 -3.39866 -40.64039 28921 ft 325 kts 115°
2026-05-08 21:22 -3.41690 -40.59884 28916 ft 327 kts 115°
2026-05-08 21:23 -3.43526 -40.55704 28911 ft 328 kts 115°
2026-05-08 21:23 -3.45364 -40.51518 28905 ft 329 kts 115°
2026-05-08 21:24 -3.47208 -40.47316 28905 ft 329 kts 115°
2026-05-08 21:24 -3.49053 -40.43111 28909 ft 330 kts 116°
2026-05-08 21:25 -3.50893 -40.38920 28911 ft 331 kts 115°
2026-05-08 21:25 -3.52749 -40.34688 28907 ft 332 kts 115°
2026-05-08 21:26 -3.54608 -40.30451 28906 ft 332 kts 116°
2026-05-08 21:26 -3.56153 -40.26931 28909 ft 332 kts 115°
2026-05-08 21:27 -3.58322 -40.21982 28911 ft 332 kts 115°
2026-05-08 21:27 -3.60168 -40.17775 28908 ft 332 kts 115°
2026-05-08 21:28 -3.61720 -40.14222 28909 ft 332 kts 115°
2026-05-08 21:28 -3.63580 -40.09992 28908 ft 332 kts 115°
2026-05-08 21:29 -3.65434 -40.05760 28909 ft 332 kts 115°
2026-05-08 21:29 -3.67279 -40.01550 28911 ft 332 kts 115°
2026-05-08 21:30 -3.69135 -39.97318 28912 ft 332 kts 115°
2026-05-08 21:30 -3.70992 -39.93078 28914 ft 332 kts 115°
2026-05-08 21:31 -3.72849 -39.88840 28919 ft 332 kts 115°
2026-05-08 21:31 -3.74706 -39.84599 28916 ft 332 kts 115°
2026-05-08 21:32 -3.76564 -39.80356 28921 ft 333 kts 115°
2026-05-08 21:32 -3.78413 -39.76134 28922 ft 333 kts 116°
2026-05-08 21:33 -3.80273 -39.71885 28928 ft 333 kts 116°
2026-05-08 21:33 -3.82147 -39.67629 28927 ft 334 kts 117°
2026-05-08 21:34 -3.84282 -39.63513 28932 ft 333 kts 119°
2026-05-08 21:34 -3.86411 -39.59386 28929 ft 333 kts 119°
2026-05-08 21:35 -3.88543 -39.55269 28925 ft 333 kts 119°
2026-05-08 21:35 -3.90671 -39.51154 28921 ft 333 kts 119°
2026-05-08 21:36 -3.92799 -39.47041 28926 ft 333 kts 119°
2026-05-08 21:36 -3.94930 -39.42920 28923 ft 333 kts 119°
2026-05-08 21:37 -3.97055 -39.38809 28925 ft 333 kts 119°
2026-05-08 21:37 -3.99172 -39.34715 28923 ft 333 kts 119°
2026-05-08 21:38 -4.01300 -39.30598 28927 ft 333 kts 119°
2026-05-08 21:38 -4.03430 -39.26477 28923 ft 333 kts 119°
2026-05-08 21:39 -4.05560 -39.22356 28927 ft 333 kts 119°
2026-05-08 21:39 -4.07691 -39.18231 28932 ft 333 kts 119°
2026-05-08 21:40 -4.09822 -39.14106 28928 ft 333 kts 119°
2026-05-08 21:40 -4.11940 -39.10005 28929 ft 333 kts 119°
2026-05-08 21:41 -4.15138 -39.03813 28937 ft 334 kts 119°
2026-05-08 21:41 -4.17277 -38.99671 28941 ft 334 kts 119°
2026-05-08 21:42 -4.19420 -38.95520 28939 ft 336 kts 119°
2026-05-08 21:42 -4.21571 -38.91354 28938 ft 336 kts 119°
2026-05-08 21:43 -4.23719 -38.87190 28943 ft 336 kts 119°
2026-05-08 21:43 -4.25871 -38.83021 28945 ft 337 kts 119°
2026-05-08 21:44 -4.28022 -38.78853 28941 ft 337 kts 119°
2026-05-08 21:44 -4.30160 -38.74703 28947 ft 337 kts 119°
2026-05-08 21:45 -4.32318 -38.70525 28945 ft 337 kts 118°
2026-05-08 21:45 -4.34464 -38.66360 28944 ft 336 kts 119°
2026-05-08 21:46 -4.36609 -38.62202 28939 ft 335 kts 118°
2026-05-08 21:46 -4.38746 -38.58054 28937 ft 335 kts 118°
2026-05-08 21:47 -4.40885 -38.53905 28941 ft 335 kts 118°
2026-05-08 21:47 -4.43022 -38.49758 28940 ft 334 kts 118°
2026-05-08 21:48 -4.45140 -38.45646 28931 ft 334 kts 118°
2026-05-08 21:48 -4.47274 -38.41505 28940 ft 334 kts 118°
2026-05-08 21:49 -4.49407 -38.37364 28937 ft 334 kts 118°
2026-05-08 21:49 -4.51490 -38.33315 28938 ft 320 kts 118°
2026-05-08 21:50 -4.53797 -38.29564 28679 ft 318 kts 133°
2026-05-08 21:50 -4.55381 -38.27986 28159 ft 323 kts 138°
2026-05-08 21:50 -4.57004 -38.26414 27629 ft 326 kts 137°
2026-05-08 21:51 -4.58632 -38.24812 27096 ft 329 kts 136°
2026-05-08 21:51 -4.60281 -38.23194 26557 ft 335 kts 136°
2026-05-08 21:51 -4.61973 -38.21544 26005 ft 343 kts 136°
2026-05-08 21:51 -4.63690 -38.19871 25443 ft 345 kts 136°
2026-05-08 21:52 -4.65409 -38.18186 24880 ft 345 kts 135°
2026-05-08 21:52 -4.67128 -38.16502 24316 ft 345 kts 135°
2026-05-08 21:52 -4.68827 -38.14842 23764 ft 344 kts 135°
2026-05-08 21:52 -4.70530 -38.13177 23161 ft 338 kts 135°
2026-05-08 21:53 -4.72193 -38.11543 22608 ft 332 kts 135°
2026-05-08 21:53 -4.73834 -38.09934 22071 ft 327 kts 135°
2026-05-08 21:53 -4.75450 -38.08356 21534 ft 322 kts 135°
2026-05-08 21:53 -4.77047 -38.06795 21060 ft 318 kts 135°
2026-05-08 21:54 -4.78619 -38.05284 20703 ft 311 kts 136°
2026-05-08 21:54 -4.80175 -38.03784 20189 ft 309 kts 135°
2026-05-08 21:54 -4.81709 -38.02276 19688 ft 308 kts 135°
2026-05-08 21:54 -4.83215 -38.00794 19190 ft 307 kts 135°
2026-05-08 21:55 -4.84741 -37.99298 18688 ft 305 kts 135°
2026-05-08 21:55 -4.86255 -37.97818 18180 ft 303 kts 135°
2026-05-08 21:55 -4.87755 -37.96347 17651 ft 300 kts 135°
2026-05-08 21:56 -4.90697 -37.93461 16672 ft 292 kts 135°
2026-05-08 21:56 -4.92140 -37.92047 16195 ft 289 kts 135°
2026-05-08 21:56 -4.93568 -37.90648 15725 ft 286 kts 135°
2026-05-08 21:56 -4.94985 -37.89258 15256 ft 283 kts 135°
2026-05-08 21:57 -4.96387 -37.87884 14794 ft 281 kts 135°
2026-05-08 21:57 -4.97779 -37.86520 14334 ft 278 kts 135°
2026-05-08 21:57 -4.99159 -37.85165 13877 ft 276 kts 135°
2026-05-08 21:57 -5.00526 -37.83826 13396 ft 273 kts 135°
2026-05-08 21:58 -5.01875 -37.82499 12941 ft 270 kts 135°
2026-05-08 21:58 -5.03214 -37.81187 12499 ft 268 kts 135°
2026-05-08 21:58 -5.04544 -37.79883 12060 ft 267 kts 135°
2026-05-08 21:58 -5.05870 -37.78583 11622 ft 266 kts 135°
2026-05-08 21:59 -5.07191 -37.77287 11189 ft 265 kts 135°
2026-05-08 21:59 -5.08508 -37.75996 10755 ft 264 kts 135°
2026-05-08 21:59 -5.09821 -37.74708 10320 ft 264 kts 135°
2026-05-08 21:59 -5.11112 -37.73440 9894 ft 263 kts 135°
2026-05-08 22:00 -5.12419 -37.72160 9435 ft 262 kts 134°
2026-05-08 22:00 -5.13712 -37.70890 9006 ft 259 kts 135°
2026-05-08 22:00 -5.14991 -37.69634 8583 ft 256 kts 135°
2026-05-08 22:00 -5.16261 -37.68388 8161 ft 254 kts 135°
2026-05-08 22:01 -5.17520 -37.67153 7743 ft 252 kts 135°
2026-05-08 22:01 -5.18773 -37.65925 7327 ft 250 kts 135°
2026-05-08 22:01 -5.20013 -37.64706 6915 ft 249 kts 135°
2026-05-08 22:01 -5.21245 -37.63496 6507 ft 247 kts 135°
2026-05-08 22:02 -5.22470 -37.62294 6087 ft 245 kts 135°
2026-05-08 22:02 -5.23683 -37.61102 5686 ft 243 kts 135°
2026-05-08 22:02 -5.24889 -37.59920 5280 ft 241 kts 135°
2026-05-08 22:02 -5.26024 -37.58798 4897 ft 219 kts 135°
2026-05-08 22:03 -5.27081 -37.57752 4541 ft 209 kts 135°
2026-05-08 22:03 -5.28101 -37.56753 4208 ft 202 kts 136°
2026-05-08 22:03 -5.29087 -37.55788 3882 ft 191 kts 135°
2026-05-08 22:03 -5.29987 -37.54903 3586 ft 177 kts 135°
2026-05-08 22:04 -5.30850 -37.54053 3347 ft 169 kts 135°
2026-05-08 22:04 -5.31677 -37.53235 3106 ft 166 kts 133°
2026-05-08 22:04 -5.32292 -37.52288 2924 ft 161 kts 114°
2026-05-08 22:04 -5.32746 -37.51280 2788 ft 157 kts 115°
2026-05-08 22:05 -5.33211 -37.50295 2651 ft 155 kts 115°
2026-05-08 22:05 -5.33666 -37.49322 2487 ft 153 kts 115°
2026-05-08 22:05 -5.34131 -37.48326 2366 ft 159 kts 115°
2026-05-08 22:05 -5.34599 -37.47326 2217 ft 158 kts 115°
2026-05-08 22:06 -5.35060 -37.46323 2067 ft 158 kts 111°
2026-05-08 22:06 -5.35247 -37.45245 1914 ft 157 kts 90°
2026-05-08 22:06 -5.35036 -37.44185 1811 ft 156 kts 71°
2026-05-08 22:06 -5.34468 -37.43266 1793 ft 159 kts 51°
2026-05-08 22:07 -5.33586 -37.42597 1798 ft 161 kts 31°
2026-05-08 22:07 -5.32562 -37.42134 1793 ft 162 kts 29°
2026-05-08 22:07 -5.31543 -37.41660 1792 ft 161 kts 29°
2026-05-08 22:07 -5.30529 -37.41189 1791 ft 160 kts 29°
2026-05-08 22:08 -5.29516 -37.40718 1775 ft 161 kts 29°
2026-05-08 22:08 -5.28482 -37.40236 1601 ft 163 kts 29°
2026-05-08 22:08 -5.27459 -37.39762 1389 ft 162 kts 29°
2026-05-08 22:08 -5.26440 -37.39290 1184 ft 161 kts 28°
2026-05-08 22:09 -5.25431 -37.38823 984 ft 152 kts 28°
2026-05-08 22:09 -5.24575 -37.38433 834 ft 115 kts 27°
2026-05-08 22:09 -5.23908 -37.38128 694 ft 97 kts 26°
2026-05-08 22:09 -5.23341 -37.37871 579 ft 84 kts 27°
2026-05-08 22:10 -5.22832 -37.37632 471 ft 78 kts 26°
2026-05-08 22:10 -5.22339 -37.37411 376 ft 78 kts 26°
2026-05-08 22:10 -5.22016 -37.37254 316 ft 77 kts 25°
2026-05-08 22:10 -5.21547 -37.37029 210 ft 73 kts 23°
2026-05-08 22:11 -5.21083 -37.36829 103 ft 72 kts 26°
2026-05-08 22:11 -5.20665 -37.36634 68 ft 58 kts 25°
2026-05-08 22:11 -5.20407 -37.36514 75 ft 22 kts 27°
2026-05-08 22:11 -5.20247 -37.36440 81 ft 28 kts 25°
2026-05-08 22:12 -5.20061 -37.36353 83 ft 32 kts 24°
2026-05-08 22:12 -5.19847 -37.36253 82 ft 35 kts 24°
2026-05-08 22:12 -5.19601 -37.36137 75 ft 44 kts 25°
2026-05-08 22:12 -5.19418 -37.36053 82 ft 14 kts 25°
2026-05-08 22:13 -5.19319 -37.36008 82 ft 6 kts 23°
2026-05-08 22:13 -5.19268 -37.36063 78 ft 15 kts 287°
2026-05-08 22:13 -5.19266 -37.36070 70 ft 0 kts 287°
2026-05-08 22:14 -5.19268 -37.36091 78 ft 10 kts 250°
2026-05-08 22:15 -5.19329 -37.36168 78 ft 13 kts 200°
2026-05-08 22:15 -5.19363 -37.36203 78 ft 2 kts 304°
2026-05-08 22:15 -5.19356 -37.36209 78 ft 1 kts 332°
2026-05-08 22:15 -5.19344 -37.36211 75 ft 5 kts 13°
2026-05-08 22:16 -5.19326 -37.36202 78 ft 0 kts 24°